• Join FlightAware (Why Join?)
  • Login
  • US Flag 
01:51PM EDT


 

Airport Tracker/Info


-or-


 

Live Flight TrackerFlight Track Log ✈ GLA182 ✈ 30-Apr-2013 ✈ KPIR - KDEN

Flight Track Log - Related Links

Times and Time Zones

All times are in EDT time to prevent confusion due to time zone crossing. See the GLA182 flight status page for this flight to view local times or setup timezone preferences in your user account.

Time Position Orientation Groundspeed Altitude Reporting Facility
EDT Latitude Longitude Course Direction KTS MPH feet Rate Location/Type
11:01AM 44.3517 -100.3606 220° Southwest 179 206 4,900  Level Denver Center
11:02AM 44.3128 -100.4067 220° Southwest 179 206 6,800 1,680 Climbing Minneapolis Center
11:03AM 44.2653 -100.4511 214° Southwest 191 220 8,400 1,500 Climbing Minneapolis Center
11:04AM 44.2072 -100.5097 216° Southwest 205 236 9,900 1,260 Climbing Minneapolis Center
11:05AM 44.1578 -100.5619 217° Southwest 213 245 11,100 1,020 Climbing Minneapolis Center
11:06AM 44.1083 -100.6128 216° Southwest 218 251 12,100 1,020 Climbing Minneapolis Center
11:07AM 44.0589 -100.6594 214° Southwest 218 251 13,400 1,080 Climbing Minneapolis Center
11:08AM 44.0058 -100.7178 218° Southwest 210 242 14,600 960 Climbing Minneapolis Center
11:10AM 43.9611 -100.7628 216° Southwest 204 235 15,400 900 Climbing Minneapolis Center
11:11AM 43.9167 -100.8056 215° Southwest 199 229 16,500 960 Climbing Minneapolis Center
11:12AM 43.8711 -100.8461 213° Southwest 197 227 17,400 1,020 Climbing Minneapolis Center
11:13AM 43.8217 -100.9000 218° Southwest 192 221 18,700 1,020 Climbing Minneapolis Center
11:14AM 43.7831 -100.9456 220° Southwest 187 215 19,500 720 Climbing Minneapolis Center
11:15AM 43.7428 -100.9928 220° Southwest 187 215 20,200 600 Climbing Minneapolis Center
11:16AM 43.7022 -101.0400 220° Southwest 189 217 20,800 540 Climbing Minneapolis Center
11:17AM 43.6619 -101.0875 220° Southwest 190 219 21,400 600 Climbing Minneapolis Center
11:18AM 43.6192 -101.1356 219° Southwest 193 222 22,100 600 Climbing Minneapolis Center
11:19AM 43.5781 -101.1800 218° Southwest 192 221 22,700 480 Climbing Minneapolis Center
11:20AM 43.5350 -101.2200 214° Southwest 189 217 23,200 480 Climbing Minneapolis Center
11:21AM 43.4925 -101.2622 216° Southwest 188 216 23,700 360 Climbing Denver Center
11:22AM 43.4419 -101.3167 218° Southwest 191 220 24,000 120 Climbing Denver Center
11:23AM 43.3989 -101.3672 220° Southwest 200 230 24,000  Level Denver Center
11:24AM 43.3544 -101.4150 218° Southwest 203 234 24,000 -60 Level Denver Center
11:25AM 43.3100 -101.4619 218° Southwest 201 231 23,900  Descending Denver Center
11:26AM 43.2669 -101.5089 218° Southwest 199 229 24,000  Climbing Denver Center
11:27AM 43.2228 -101.5561 218° Southwest 200 230 24,000  Level Denver Center
11:28AM 43.1703 -101.6119 218° Southwest 199 229 24,000  Level Denver Center
11:29AM 43.1258 -101.6603 218° Southwest 202 232 24,000  Level Denver Center
11:30AM 43.0828 -101.7103 220° Southwest 203 234 24,000  Level Denver Center
11:31AM 43.0361 -101.7653 221° Southwest 204 235 24,000  Level Denver Center
11:32AM 42.9919 -101.8100 217° Southwest 206 237 24,000  Level Denver Center
11:33AM 42.9422 -101.8644 219° Southwest 206 237 24,000  Level Denver Center
11:34AM 42.9011 -101.9131 221° Southwest 205 236 24,000  Level Denver Center
11:35AM 42.8622 -101.9653 225° Southwest 205 236 24,000  Level Denver Center
11:36AM 42.8206 -102.0275 228° Southwest 201 231 24,000  Level Denver Center
11:37AM 42.7817 -102.0800 225° Southwest 203 234 24,000  Level Denver Center
11:38AM 42.7369 -102.1411 225° Southwest 204 235 24,000  Level Denver Center
11:39AM 42.6961 -102.1914 222° Southwest 207 238 24,000  Level Denver Center
11:40AM 42.6514 -102.2542 226° Southwest 207 238 24,000  Level Denver Center
11:41AM 42.6142 -102.3078 227° Southwest 206 237 24,000  Level Denver Center
11:42AM 42.5714 -102.3733 228° Southwest 207 238 24,000 -60 Level Denver Center
11:44AM 42.5336 -102.4258 226° Southwest 205 236 23,900  Descending Denver Center
11:45AM 42.4897 -102.4886 227° Southwest 204 235 24,000  Climbing Denver Center
11:46AM 42.4519 -102.5422 226° Southwest 205 236 24,000  Level Denver Center
11:47AM 42.4106 -102.6067 229° Southwest 205 236 24,000  Level Denver Center
11:48AM 42.3733 -102.6603 227° Southwest 203 234 24,000  Level Denver Center
11:49AM 42.3319 -102.7239 229° Southwest 205 236 24,000  Level Denver Center
11:50AM 42.2953 -102.7800 229° Southwest 206 237 24,000  Level Denver Center
11:51AM 42.2539 -102.8600 235° Southwest 206 237 24,000 -360 Level Denver Center
11:52AM 42.2247 -102.9208 237° Southwest 202 232 23,300 -900 Descending Denver Center
11:53AM 42.1908 -102.9942 238° Southwest 205 236 22,200 -600 Descending Denver Center
11:54AM 42.1600 -103.0589 237° Southwest 211 243 22,100 -60 Descending Denver Center
11:55AM 42.1206 -103.1303 233° Southwest 212 244 22,100 -60 Level Denver Center
11:56AM 42.0828 -103.1875 228° Southwest 212 244 22,000 -60 Descending Denver Center
11:57AM 42.0339 -103.2519 224° Southwest 217 250 22,000  Level Denver Center
11:58AM 41.9961 -103.3125 230° Southwest 220 253 22,000  Level Denver Center
11:59AM 41.9586 -103.3733 230° Southwest 220 253 22,000  Level Denver Center
12:00PM 41.9150 -103.4414 229° Southwest 218 251 22,000  Level Denver Center
12:01PM 41.8747 -103.4956 225° Southwest 216 249 22,000  Level Denver Center
12:02PM 41.7950 -103.4856 175° South 256 295 22,000  Level Denver Center
12:03PM 41.7303 -103.4961 187° South 246 283 22,000  Level Denver Center
12:04PM 41.6583 -103.5153 191° South 236 272 22,000  Level Denver Center
12:05PM 41.5944 -103.5297 190° South 242 278 22,000 -120 Level Denver Center
12:06PM 41.5192 -103.5447 188° South 244 281 21,800 -420 Descending Denver Center
12:08PM 41.4503 -103.5508 184° South 254 292 21,200 -660 Descending Denver Center
12:09PM 41.3694 -103.5558 183° South 261 300 20,500 -780 Descending Denver Center
12:10PM 41.2983 -103.5633 185° South 264 304 19,600 -1,020 Descending Denver Center
12:11PM 41.2197 -103.5708 184° South 257 296 18,500 -1,200 Descending Denver Center
12:12PM 41.1531 -103.5800 186° South 252 290 17,200 -1,080 Descending Denver Center
12:13PM 41.0864 -103.5922 188° South 251 289 16,300 -600 Descending Denver Center
12:14PM 41.0092 -103.6047 187° South 252 290 16,000 -180 Descending Denver Center
12:15PM 40.9411 -103.6131 185° South 253 291 16,000  Level Denver Center
12:16PM 40.8636 -103.6264 187° South 253 291 16,000  Level Denver Center
12:17PM 40.7961 -103.6375 187° South 253 291 16,000  Level Denver Center
12:18PM 40.7189 -103.6475 186° South 251 289 16,000 -300 Level Denver Center
12:19PM 40.6522 -103.6575 186° South 251 289 15,400 -840 Descending Denver Center
12:20PM 40.5858 -103.7083 210° Southwest 245 282 14,300 -1,020 Descending Denver Center
12:21PM 40.5339 -103.7617 218° Southwest 245 282 13,400 -660 Descending Denver Center
12:22PM 40.4750 -103.8269 220° Southwest 246 283 13,000 -300 Descending Denver Center
12:23PM 40.4339 -103.8892 229° Southwest 240 276 12,900  Descending Denver Center
12:24PM 40.3883 -103.9611 230° Southwest 239 275 13,000  Climbing Denver Center
12:25PM 40.3422 -104.0228 226° Southwest 238 274 13,000  Level Denver Center
12:26PM 40.2936 -104.0919 227° Southwest 239 275 13,000  Level Denver Center
12:27PM 40.2472 -104.1547 226° Southwest 239 275 13,000  Level Denver Center
12:28PM 40.1997 -104.2175 225° Southwest 243 280 13,000  Level Denver Center
12:29PM 40.1486 -104.2881 227° Southwest 247 284 13,000  Level Denver Center
12:30PM 40.1025 -104.3531 227° Southwest 245 282 13,000  Level Denver Center
12:31PM 40.0500 -104.4167 223° Southwest 248 285 13,000  Level Denver TRACON
12:32PM 40.0167 -104.4667 229° Southwest 250 288 13,000 -540 Level Denver TRACON
12:33PM 39.9667 -104.5333 226° Southwest 255 293 12,000 -960 Descending Denver TRACON
12:34PM 39.9333 -104.6167 242° Southwest 256 295 11,000 -660 Descending Denver TRACON
12:35PM 39.9364 -104.6617 275° West 245 282 11,000  Level Denver Center
12:36PM 39.9369 -104.7453 271° West 234 269 11,000 -600 Level Denver Center
12:37PM 39.9356 -104.8269 269° West 213 245 9,800 -1,140 Descending Denver Center
12:38PM 39.9142 -104.8922 247° West 215 247 8,700 -1,020 Descending Denver Center
12:39PM 39.8556 -104.8842 174° South 200 230 7,700 -780 Descending Denver Center
12:40PM 39.8417 -104.8211 106° East 189 217 7,100 -900 Descending Denver Center
12:41PM 39.8411 -104.7547 91° East 175 201 5,900 -900 Descending Denver Center
12:42PM 39.8403 -104.7044 91° East 137 158 5,300 -600 Descending Denver Center
12:44PM 39.8500 -104.6667 118° Southeast  Level FlightAware Approximate
12:51PM 39.8617 -104.6732 118° Southeast  Level Estimated